Lake Keowee Weather Center

Moon Phase Calendar



Lake Keowee Water Level
Online Cameras

 


      

Current Conditions in Old Pickens
7/29/2021 8:16:39 AM

72°F
Feels Like 74
Clear
Humidity
93%
Pressure
30.06"
Wind
0
Dew Point
70°F
UV Index
1/10 (Low)
Visibility
6 mi

Hourly Forecast

Date & Time Thu, Jul 29
8:00 AM
Thu, Jul 29
9:00 AM
Thu, Jul 29
10:00 AM
Thu, Jul 29
11:00 AM
Thu, Jul 29
12:00 PM
Thu, Jul 29
1:00 PM
Thu, Jul 29
2:00 PM
Thu, Jul 29
3:00 PM
Thu, Jul 29
4:00 PM
Thu, Jul 29
5:00 PM
Thu, Jul 29
6:00 PM
Thu, Jul 29
7:00 PM
Thu, Jul 29
8:00 PM
Thu, Jul 29
9:00 PM
Thu, Jul 29
10:00 PM
Thu, Jul 29
11:00 PM
Fri, Jul 30
12:00 AM
Fri, Jul 30
1:00 AM
Fri, Jul 30
2:00 AM
Fri, Jul 30
3:00 AM
Fri, Jul 30
4:00 AM
Fri, Jul 30
5:00 AM
Fri, Jul 30
6:00 AM
Fri, Jul 30
7:00 AM
Fri, Jul 30
8:00 AM
Fri, Jul 30
9:00 AM
Fri, Jul 30
10:00 AM
Fri, Jul 30
11:00 AM
Fri, Jul 30
12:00 PM
Fri, Jul 30
1:00 PM
Fri, Jul 30
2:00 PM
Fri, Jul 30
3:00 PM
Fri, Jul 30
4:00 PM
Fri, Jul 30
5:00 PM
Fri, Jul 30
6:00 PM
Fri, Jul 30
7:00 PM
Fri, Jul 30
8:00 PM
Fri, Jul 30
9:00 PM
Fri, Jul 30
10:00 PM
Fri, Jul 30
11:00 PM
Sat, Jul 31
12:00 AM
Sat, Jul 31
1:00 AM
Sat, Jul 31
2:00 AM
Sat, Jul 31
3:00 AM
Sat, Jul 31
4:00 AM
Sat, Jul 31
5:00 AM
Sat, Jul 31
6:00 AM
Sat, Jul 31
7:00 AM
Condition
Clear

Clear

Clouds

Clouds

Clouds

Clouds

Clouds

Clear

Clear

Clouds

Clear

Clouds

Clouds

Clouds

Clouds

Clouds

Clouds

Clouds

Clouds

Clouds

Clouds

Clouds

Clouds

Clouds

Clouds

Clouds

Clouds

Clouds

Clouds

Clouds

Clouds

Clouds

Clouds

Clouds

Clouds

Clouds

Clouds

Clouds

Rain

Clouds

Clouds

Clouds

Clouds

Clouds

Clouds

Clouds

Clouds

Clouds
Temperature 72°F74°F77°F81°F87°F93°F95°F97°F98°F97°F95°F90°F83°F79°F-17965°F76°F75°F75°F75°F74°F74°F73°F73°F73°F76°F81°F85°F89°F92°F95°F97°F98°F97°F95°F92°F88°F84°F81°F80°F78°F76°F76°F75°F74°F74°F73°F72°F72°F
Feels Like 74°F75°F78°F85°F90°F95°F96°F96°F97°F97°F96°F93°F86°F79°F-17978°F76°F75°F75°F75°F75°F74°F74°F74°F74°F77°F84°F90°F94°F97°F100°F102°F103°F103°F101°F99°F94°F90°F86°F80°F79°F78°F77°F76°F75°F75°F74°F73°F73°F
Cloudiness 1%6%24%31%32%33%28%2%4%62%7%73%27%100%100%100%95%87%86%85%66%50%45%56%63%100%100%99%99%100%99%100%100%100%100%100%98%92%95%92%90%85%82%56%78%85%81%72%
Visibility 6 mi6 mi6 mi6 mi6 mi6 mi6 mi6 mi6 mi6 mi6 mi6 mi6 mi6 mi6 mi6 mi6 mi6 mi6 mi6 mi6 mi6 mi6 mi6 mi6 mi6 mi6 mi6 mi6 mi6 mi6 mi6 mi6 mi6 mi6 mi6 mi6 mi6 mi6 mi6 mi6 mi6 mi6 mi6 mi6 mi6 mi6 mi6 mi
Precipitation 0%0%0%0%0%0%0%0%0%0%0%0%0%0%0%0%0%0%0%0%0%0%0%0%0%0%1%1%0%1%6%2%2%10%13%14%14%15%21%19%19%19%11%0%0%0%0%0%
Humidity 93%87%79%68%54%38%32%28%26%28%34%47%62%59%58%59%60%62%64%68%71%75%77%79%78%70%60%54%48%43%39%36%39%43%49%59%69%71%75%79%82%83%83%83%82%81%81%81%
Dew Point 70°F70°F70°F70°F68°F63°F60°F58°F57°F59°F62°F66°F68°F63°F61°F60°F60°F60°F61°F62°F63°F64°F65°F66°F68°F69°F69°F69°F69°F68°F67°F67°F67°F69°F70°F71°F72°F70°F70°F70°F70°F69°F69°F68°F67°F66°F65°F65°F
Pressure 30.06"30.06"30.06"30.03"30.03"30"29.97"29.97"29.94"29.91"29.91"29.88"29.91"29.94"29.94"29.97"29.97"29.97"29.94"29.94"29.94"29.94"29.94"29.94"29.97"29.97"29.97"29.97"29.97"29.94"29.91"29.91"29.88"29.88"29.91"29.88"29.94"29.94"29.97"29.97"30"30"30"30"30"30"30"30"
Wind Speed 2.4 mph2.3 mph3.2 mph4.5 mph5.4 mph6 mph5.6 mph5.2 mph5.4 mph7.6 mph7 mph5.5 mph3.5 mph4.8 mph4.6 mph4.2 mph4.3 mph4.9 mph5.2 mph5.2 mph5.1 mph5.2 mph4.9 mph4.7 mph4 mph3.9 mph4.5 mph4.9 mph4.9 mph5 mph5.6 mph6.5 mph7.4 mph8.4 mph9.5 mph9.3 mph3.8 mph5 mph3.1 mph2.5 mph2.9 mph3.7 mph3.5 mph4.2 mph3.8 mph3 mph2.4 mph3.9 mph
Wind
Direction
299°
WNW
257°
WSW
231°
SW
219°
SW
220°
SW
218°
SW
213°
SSW
206°
SSW
204°
SSW
218°
SW
200°
SSW
229°
SW
236°
SW
297°
WNW
304°
NW
305°
NW
306°
NW
314°
NW
315°
NW
310°
NW
308°
NW
316°
NW
313°
NW
314°
NW
308°
NW
303°
WNW
291°
WNW
291°
WNW
295°
WNW
289°
WNW
267°
W
262°
W
275°
W
298°
WNW
309°
NW
305°
NW
344°
NNW
329°
NNW
347°
NNW
22°
NNE
12°
NNE
347°
NNW
339°
NNW
340°
NNW
350°
N
25°
NNE
33°
NNE

N

Daily Forecast

Date High Low Precip. Humidity
Today
Jul 29

Clouds
98 °F
72 °F
0%
38%
Friday
Jul 30

Rain
97 °F
73 °F
39%
43%
Saturday
Jul 31

Clouds
93 °F
73 °F
11%
41%
Sunday
Aug 1

Rain
89 °F
69 °F
56%
43%
Monday
Aug 2

Rain
81 °F
69 °F
100%
70%
Tuesday
Aug 3

Rain
87 °F
65 °F
62%
42%
Wednesday
Aug 4

Rain
74 °F
64 °F
81%
81%
Thursday
Aug 5

Rain
78 °F
66 °F
100%
78%
Friday
Aug 6

Rain
83 °F
66 °F
86%
66%
Saturday
Aug 7

Rain
79 °F
67 °F
100%
77%
Sunday
Aug 8

Rain
82 °F
69 °F
99%
68%
Monday
Aug 9

Rain
85 °F
68 °F
74%
58%
Tuesday
Aug 10

Clouds
89 °F
69 °F
24%
50%
Wednesday
Aug 11

Rain
89 °F
69 °F
34%
53%
Thursday
Aug 12

Rain
81 °F
67 °F
92%
66%
Friday
Aug 13

Rain
82 °F
67 °F
93%
70%

Temperature 8-14 Day Outlook



Precipitation 8-14 Day Outlook




Quick Links
Lake Keowee News
Lake Keowee Photos
Lake Keowee Videos




About Us
Contact Us
Site Map
Search Site
Advertise With Us
   
Keowee.USLakes.info
THE LAKE KEOWEE WEBSITE

Copyright 2021, Lakes Online
Privacy    |    Legal